Theta_e
331 332 332 331 329 329 330 330 330 330 329 329 331 331 330 326 323 325 326 326 327 325 324 323 323 326 329 329 329 331 331 331 330 329 329 328 328 328 326 322 316 312 309 311 315 319 323 324 321 315 308 306 306 307 307 305 306 306 306 306 306 306 305 306 306 306 306 307 307 307 308 308 309 309 309 309 308 308 308 308 308 307 307 307 307
330 331 332 331 330 330 330 330 330 331 331 331 332 332 331 328 326 328 327 327 327 325 324 325 326 327 329 329 329 330 330 330 330 330 329 328 328 328 327 326 322 318 313 310 311 312 315 320 322 317 308 306 307 308 309 306 305 306 305 306 306 306 305 305 305 305 306 306 306 307 307 308 308 308 309 309 309 308 308 308 308 307 307 307 307
329 329 330 331 331 329 329 330 330 330 331 332 332 331 331 328 327 328 328 328 328 324 326 327 327 328 328 328 328 329 329 329 329 329 329 328 328 329 328 328 326 324 319 314 313 312 311 314 319 317 309 306 306 306 308 306 304 305 305 306 306 306 305 305 305 305 305 305 305 306 306 307 308 308 308 309 309 308 308 308 308 308 308 307 307
328 327 328 330 330 328 327 328 329 328 328 329 328 328 329 327 325 327 328 329 328 325 326 328 328 328 328 328 328 328 328 328 328 328 329 328 328 329 329 329 328 328 326 321 317 316 315 314 315 316 312 310 310 309 307 305 304 304 305 305 306 306 305 305 305 305 305 305 305 305 306 306 307 308 308 308 309 308 309 308 308 308 308 308 307
326 326 328 330 329 328 327 329 329 329 328 327 327 328 328 327 325 326 328 328 328 327 324 326 328 329 328 329 328 328 328 328 328 328 328 328 328 328 329 330 329 329 329 327 324 322 322 320 318 318 319 318 318 316 311 308 308 308 308 308 308 307 305 305 305 305 305 304 304 304 305 305 306 307 307 308 308 309 309 308 309 308 308 308 308
325 326 327 328 329 329 329 329 330 329 329 329 328 328 327 328 328 328 329 330 330 328 326 325 327 328 328 328 329 328 328 328 328 328 328 327 327 330 330 330 329 329 329 329 328 327 326 325 324 323 323 324 323 322 319 314 313 313 313 313 313 310 306 305 305 304 304 303 304 304 304 305 305 305 307 307 308 308 308 309 309 309 309 308 308
326 327 327 328 328 328 329 330 330 330 329 329 329 329 330 330 330 330 329 331 331 330 330 328 325 326 327 327 328 328 328 328 327 327 328 326 326 330 331 330 330 330 329 329 329 329 328 328 327 326 326 326 325 326 325 321 320 320 320 321 321 317 311 309 309 307 306 304 303 304 304 304 304 304 305 306 307 307 308 308 309 309 309 309 309
328 328 327 328 328 329 329 330 331 330 329 328 328 330 332 332 331 331 330 331 330 329 330 329 326 326 325 325 326 326 328 330 328 329 329 329 328 330 330 329 330 330 329 330 328 328 329 329 328 328 327 327 327 327 327 326 325 325 325 325 326 323 317 313 314 313 311 307 303 303 303 303 304 303 304 304 305 306 307 308 308 309 309 309 309
329 328 326 326 328 330 330 330 331 330 327 328 328 328 330 331 331 331 331 331 331 329 330 328 326 326 325 326 326 325 328 330 329 330 330 329 327 327 327 327 329 329 329 330 329 328 327 328 328 328 328 328 328 328 328 328 328 327 327 327 327 326 323 318 318 319 317 314 310 307 305 303 303 303 303 304 305 306 307 307 308 308 309 309 309
329 328 326 326 328 330 330 330 330 329 328 327 327 328 328 330 330 329 330 332 332 331 331 329 327 327 327 326 326 326 327 327 327 328 329 328 325 325 325 326 327 329 329 330 330 329 328 327 327 328 328 328 328 328 329 329 330 329 329 329 329 329 327 324 323 323 323 321 318 314 310 307 306 305 306 306 307 307 307 307 308 308 309 309 309
328 328 328 328 328 328 329 329 330 330 329 328 328 328 328 328 329 328 328 330 332 332 331 330 328 328 328 327 327 327 327 328 327 327 327 327 326 326 326 327 328 328 328 328 329 329 329 328 327 328 328 327 328 328 328 328 329 329 329 329 329 329 330 328 327 326 327 326 324 320 315 313 312 312 312 311 311 310 308 308 308 308 309 309 309
326 327 328 329 328 328 329 329 330 330 330 330 329 328 328 328 328 327 326 328 330 331 329 329 328 328 328 328 328 327 327 327 327 327 328 327 326 326 327 327 328 328 328 328 328 328 328 328 328 328 328 327 328 328 328 328 328 328 329 329 329 329 329 330 329 329 328 328 328 326 321 317 317 316 316 314 313 311 310 309 308 308 308 309 309
326 327 328 328 328 328 328 328 329 330 329 329 328 327 328 329 329 328 327 327 329 329 328 328 329 329 329 329 328 327 327 326 326 327 327 327 326 325 326 327 327 327 327 327 327 327 327 327 327 328 327 326 327 327 327 327 327 328 328 328 328 329 329 329 329 328 328 329 330 329 326 322 319 318 317 316 315 313 311 310 309 308 308 308 309
325 327 327 327 328 327 327 328 328 329 329 328 328 327 328 328 329 329 327 326 328 328 327 328 330 330 330 329 328 327 327 326 326 326 326 326 326 325 325 326 326 325 325 326 327 326 326 326 326 326 326 326 326 326 327 327 327 327 328 328 328 328 328 328 328 328 328 328 329 330 329 327 324 320 319 317 316 315 313 311 309 308 308 308 309
321 324 326 326 326 326 326 327 328 328 328 329 328 328 327 327 328 328 327 326 327 327 327 328 330 330 329 328 328 328 327 326 327 326 325 325 325 326 326 326 326 324 324 325 326 326 326 325 325 324 323 323 324 324 324 325 325 325 326 327 327 327 328 327 328 328 328 328 329 329 329 329 328 326 324 322 319 317 315 313 310 309 308 308 309
315 316 321 323 324 325 325 326 326 327 328 329 328 328 328 327 327 327 326 326 327 327 326 328 329 330 330 328 328 328 326 327 327 325 325 325 326 326 326 326 326 325 325 325 324 324 324 323 323 322 322 322 322 321 322 322 322 323 324 324 326 326 327 327 327 328 328 328 328 328 328 328 328 328 328 328 325 321 317 315 314 312 311 310 309
315 315 314 315 317 320 322 323 324 326 327 326 327 326 326 326 327 327 327 327 327 326 326 327 328 329 328 328 328 327 326 327 327 325 325 326 326 325 325 325 325 325 324 324 323 323 321 321 320 320 321 320 319 320 321 321 321 322 323 322 323 324 325 326 326 327 327 327 327 327 327 328 327 327 328 327 327 326 321 317 317 317 315 314 312
313 315 313 312 314 315 317 319 320 322 324 325 326 325 323 324 326 328 328 327 326 327 327 326 326 326 326 327 327 327 327 327 327 326 325 325 324 323 323 322 322 322 322 322 322 322 320 319 317 317 316 316 315 317 317 318 318 319 318 318 318 320 322 323 324 325 325 326 326 326 326 327 327 327 327 326 326 327 324 319 319 320 320 319 318
313 313 314 316 318 318 317 318 318 318 319 322 323 322 323 326 327 328 328 327 326 327 327 326 326 326 325 326 326 326 327 327 326 326 325 323 322 321 321 321 321 320 319 319 318 317 316 316 315 314 313 313 313 313 313 314 315 316 317 317 317 318 319 322 323 323 323 324 325 326 326 326 326 326 325 326 326 327 327 322 320 322 323 322 322
316 315 316 316 317 318 318 318 318 317 317 319 320 322 323 325 326 327 327 326 326 326 326 326 327 327 325 326 326 325 325 326 327 326 325 323 321 319 319 319 319 318 316 314 313 312 312 314 315 314 314 314 314 314 315 315 315 317 318 320 320 320 321 322 323 323 323 324 324 325 325 324 324 324 324 325 325 326 327 325 323 322 323 323 323
314 316 317 317 316 317 317 318 318 317 319 320 321 322 323 323 325 325 326 327 327 326 326 327 328 327 326 327 327 326 325 325 327 327 324 322 321 319 318 318 317 316 314 313 312 313 314 315 315 315 315 316 316 317 317 317 317 318 319 320 321 321 322 322 323 323 323 323 324 324 325 325 324 324 325 324 324 325 327 327 325 324 323 323 324
313 313 316 318 317 317 319 319 318 318 319 320 319 319 321 321 323 324 326 327 327 327 327 328 327 326 326 328 327 326 326 326 326 326 325 323 321 319 318 318 318 316 313 314 314 314 314 314 315 315 315 315 316 316 317 317 317 317 318 318 319 319 320 320 322 322 323 323 323 324 325 325 325 325 325 325 325 326 327 326 326 325 325 325 325
316 315 314 316 315 316 319 320 318 317 318 318 318 319 319 319 320 321 324 326 326 327 328 328 327 325 325 327 326 326 327 326 326 325 325 324 321 320 319 318 318 315 313 313 313 313 313 313 313 313 314 314 315 315 316 316 316 316 316 317 317 318 319 319 320 321 322 323 323 323 323 322 322 323 323 323 324 325 327 328 327 327 326 326 325
318 318 314 314 315 315 317 318 318 318 318 318 317 316 316 316 317 319 322 323 324 326 326 327 327 326 326 327 326 326 326 326 325 324 323 323 321 320 319 318 316 314 313 313 312 312 312 311 311 311 312 312 312 312 312 313 313 313 313 314 315 315 316 317 318 319 321 321 322 322 321 320 320 320 319 319 320 321 323 325 326 326 326 325 325
319 319 313 311 313 314 316 318 318 318 317 316 315 314 315 317 317 319 322 323 323 325 325 325 326 326 325 324 324 324 324 323 323 322 322 321 320 320 318 317 316 314 313 313 312 311 311 310 310 309 310 309 309 309 309 309 309 309 309 310 310 311 312 312 313 315 316 317 319 320 320 320 321 321 320 320 319 319 319 320 320 321 322 322 322
317 315 309 308 309 310 315 317 315 313 312 311 311 312 316 319 319 320 321 321 321 323 323 324 324 323 321 321 320 320 319 318 317 318 318 318 318 317 316 316 315 314 314 313 313 312 310 309 308 308 307 307 307 306 305 306 305 305 305 305 305 306 306 307 308 309 310 311 312 314 315 317 319 319 319 320 320 320 320 320 319 319 319 319 318
312 308 304 305 306 306 309 309 307 307 306 307 310 312 315 319 317 313 311 311 311 313 315 315 315 314 314 313 313 311 310 310 311 312 313 314 315 315 314 315 315 314 313 313 313 312 310 308 307 306 305 305 304 304 304 304 303 303 303 302 302 303 302 303 303 303 304 305 306 306 307 309 311 312 313 314 315 315 316 316 317 318 318 317 316
306 305 305 305 305 305 305 305 305 305 305 305 309 311 313 315 312 306 305 305 305 306 307 307 306 306 305 305 306 305 305 306 308 308 309 311 312 312 313 314 315 314 314 313 313 311 310 309 307 305 304 305 305 304 304 303 303 303 302 302 302 302 301 301 301 301 302 302 302 302 303 303 304 305 306 306 307 307 308 308 309 311 312 312 312
305 306 305 305 305 305 305 305 305 305 305 305 306 307 308 309 307 304 305 305 305 305 304 304 304 303 304 304 306 306 306 307 307 306 306 309 311 312 313 314 314 315 315 315 314 311 308 308 307 305 305 305 305 305 304 304 304 303 302 302 302 302 302 302 302 302 302 302 302 302 302 302 302 303 302 303 303 303 303 303 304 304 305 305 306
305 305 305 305 306 306 306 306 306 306 305 305 305 305 305 305 304 304 304 304 304 304 303 304 304 304 306 307 309 309 310 310 309 309 309 310 312 312 312 312 313 314 315 314 313 312 310 307 306 305 305 305 305 304 304 304 303 303 302 302 302 302 302 302 302 302 302 302 302 302 302 302 302 302 302 302 302 303 303 303 303 303 303 303 303
305 305 306 306 305 306 306 305 305 305 305 305 305 304 304 304 304 303 303 303 304 303 304 305 306 307 308 309 310 310 310 311 311 311 311 312 313 313 313 313 313 313 314 313 312 312 311 308 307 306 306 306 306 305 305 305 304 303 303 302 302 302 302 302 302 301 301 301 301 301 301 301 302 302 302 302 302 302 302 303 303 303 303 303 303
305 305 305 305 305 305 305 305 306 305 305 304 304 304 304 304 304 305 304 305 305 305 306 306 307 309 309 310 310 310 310 312 311 311 311 312 312 313 313 313 313 313 314 315 313 311 310 309 308 308 308 308 307 306 306 306 307 306 305 304 303 303 303 303 303 302 302 302 302 302 302 302 302 302 302 302 302 302 302 302 302 302 302 303 303
306 306 306 306 306 305 306 306 306 305 305 305 304 304 304 304 305 306 306 307 308 307 307 307 308 309 310 310 310 310 311 311 311 311 311 310 311 313 313 313 313 313 313 314 313 311 310 310 309 309 310 309 307 307 307 307 308 307 306 305 305 304 302 302 304 303 303 303 303 303 303 303 303 302 303 302 302 302 302 302 302 302 302 302 302
306 306 306 306 306 306 306 307 306 305 305 305 305 305 305 305 306 306 307 308 309 307 306 308 307 307 308 308 308 308 309 309 311 311 311 311 312 313 313 313 311 311 312 313 313 312 311 311 310 310 310 309 306 307 308 308 307 307 305 305 305 305 304 303 303 304 304 303 304 304 304 304 304 304 304 303 303 303 303 303 302 302 302 302 302
307 307 306 307 306 306 306 306 306 306 305 306 306 306 306 306 306 306 306 307 307 307 308 309 308 307 308 308 307 307 307 307 309 310 310 311 312 313 313 312 311 311 311 312 312 312 311 310 309 308 309 310 308 307 308 308 309 308 306 306 306 306 306 306 305 304 305 304 304 304 304 304 304 303 303 303 303 304 304 304 304 303 303 303 302
307 307 307 307 307 307 306 306 307 306 306 306 306 306 306 306 306 306 306 306 306 308 310 310 310 309 309 309 309 308 308 308 308 309 310 311 312 313 313 312 311 312 312 311 311 312 311 310 310 308 308 310 308 307 307 307 307 308 307 307 307 306 307 308 307 306 307 306 306 306 305 305 304 304 304 304 304 304 303 303 303 303 303 303 303
308 307 307 307 307 307 307 307 307 307 306 307 306 307 307 307 307 307 307 308 308 308 310 310 310 310 311 312 312 310 310 310 310 310 310 311 312 313 313 312 312 313 314 312 311 311 311 311 310 310 310 309 308 309 309 308 307 307 307 307 307 307 307 307 307 307 307 307 308 308 307 307 307 306 306 305 305 305 304 304 303 303 302 302 302
312 310 310 309 307 307 308 308 308 307 307 307 308 307 308 308 308 309 309 310 310 310 311 310 310 310 311 313 313 312 311 311 312 312 311 310 311 311 312 312 312 313 314 313 312 312 312 311 310 311 311 310 310 309 309 309 309 308 308 307 307 307 307 306 306 306 306 306 306 306 307 307 307 307 306 306 306 306 305 305 305 304 303 302 302
314 313 314 313 312 311 311 309 309 309 309 309 309 309 310 311 311 312 312 312 313 314 314 314 314 314 314 314 314 314 313 313 314 314 312 311 310 310 312 312 311 313 314 313 312 312 312 311 311 311 310 310 310 309 308 309 309 308 307 307 307 307 306 306 305 305 305 306 305 305 305 306 306 306 306 306 306 305 305 305 305 305 305 304 303
315 315 315 315 316 316 315 313 312 312 312 313 312 312 314 314 314 314 315 315 316 316 317 316 316 317 317 317 317 316 316 315 316 316 314 313 311 310 312 312 311 312 313 312 312 312 311 312 311 311 311 310 310 309 308 309 308 308 307 306 306 306 306 305 305 304 304 305 305 305 304 304 305 305 305 305 305 305 305 304 304 304 304 304 304
317 317 317 317 316 316 316 316 316 316 316 316 315 315 315 316 316 317 317 317 317 317 318 318 317 317 317 317 317 317 317 317 316 315 315 314 312 311 312 311 311 312 312 312 312 312 312 312 311 311 311 311 310 309 309 308 308 307 306 305 305 305 304 304 304 303 303 304 304 304 303 303 303 304 304 303 303 304 304 303 303 303 303 303 303
318 318 318 318 318 317 317 317 317 317 317 317 317 316 317 317 317 317 317 317 317 317 317 317 317 316 317 317 317 317 317 317 315 315 316 315 315 313 312 312 311 311 311 312 312 312 312 311 311 310 311 311 310 309 308 308 307 306 305 305 304 304 304 303 303 303 303 302 302 303 303 302 302 302 302 301 301 302 303 302 301 301 301 301 301
318 317 318 318 318 318 318 318 317 317 317 317 318 317 317 317 317 317 316 317 317 317 317 317 316 317 317 317 318 318 317 317 316 316 316 316 316 316 314 314 313 311 311 311 311 311 312 311 311 310 310 310 309 308 307 307 306 305 304 303 303 303 303 303 302 302 302 302 301 302 302 301 300 300 300 299 299 300 300 301 301 300 300 300 300
319 319 319 319 319 318 318 318 317 317 317 316 317 317 317 316 316 316 316 315 316 316 317 317 316 316 316 318 320 319 317 317 316 316 317 317 317 316 316 315 315 314 313 312 311 310 310 310 309 309 309 308 308 307 307 306 305 304 303 303 303 303 302 301 301 301 301 300 299 300 300 299 298 298 299 299 298 298 299 299 300 299 299 298 298
320 321 321 320 320 320 319 319 318 318 317 316 315 316 316 316 316 315 315 315 315 315 316 316 315 316 318 319 320 319 317 316 317 317 318 318 317 317 317 316 314 314 313 312 311 310 309 309 307 307 307 307 307 306 306 305 304 303 303 302 302 300 299 299 300 300 299 298 297 297 298 298 298 299 299 298 297 297 297 298 298 298 298 298 297
321 321 321 321 321 320 320 320 319 319 318 317 315 315 315 316 315 314 314 314 313 314 316 316 314 314 316 316 316 316 315 314 316 317 317 317 317 316 316 315 313 312 311 310 309 309 308 307 306 305 306 306 306 305 304 303 303 302 301 300 299 298 298 298 298 298 298 297 297 297 297 297 298 298 299 298 298 298 297 297 297 297 298 297 297
321 320 320 320 320 319 319 319 319 319 318 317 315 314 315 315 315 314 314 313 313 314 314 312 310 309 309 308 310 312 311 311 313 313 314 316 316 315 315 314 312 311 310 308 308 307 307 306 305 305 305 305 305 304 303 303 302 300 299 298 298 297 297 298 298 299 298 299 299 299 299 298 297 298 299 299 298 298 298 297 297 297 297 298 298
320 319 319 319 319 319 319 319 319 319 318 317 315 314 315 315 314 314 314 314 313 312 310 308 307 307 306 306 307 308 308 309 311 312 314 316 315 314 313 312 310 309 308 306 306 306 306 306 305 305 305 304 303 303 303 302 300 298 297 297 296 297 298 299 299 299 299 299 299 299 299 299 298 298 299 299 298 298 297 297 297 298 298 297 297
318 318 318 319 319 319 318 318 319 319 318 316 315 315 315 315 315 314 314 313 311 310 308 306 306 306 306 306 306 305 306 308 310 311 312 314 313 312 310 309 307 307 306 306 306 307 306 306 305 305 304 303 303 302 301 300 298 297 296 295 295 296 297 298 298 298 299 299 298 298 298 298 298 298 298 298 298 297 297 297 298 298 298 297 297
316 317 318 319 319 319 318 317 318 318 317 316 316 316 316 316 315 314 314 312 310 307 306 306 306 306 305 305 305 305 306 307 308 308 308 309 309 309 308 307 306 306 306 307 307 306 306 305 304 304 303 303 302 300 299 298 298 296 295 295 295 295 296 297 298 298 298 298 298 298 298 298 298 297 298 298 297 298 298 298 298 298 297 297 297
314 315 316 318 318 318 318 317 318 317 316 315 315 315 315 315 314 314 313 311 309 307 306 306 306 306 306 306 306 306 306 307 307 306 306 306 307 307 307 307 306 305 306 306 305 304 304 304 303 302 301 300 299 298 297 297 296 295 295 295 295 295 296 297 297 297 298 298 298 298 297 297 297 297 297 297 297 298 298 298 298 297 297 297 297
Wind_Speed
8 7 7 7 7 7 7 8 8 8 8 7 7 7 6 6 7 7 7 6 5 4 5 6 6 7 7 7 8 8 7 6 5 4 3 2 2 1 1 2 3 3 3 2 2 3 2 2 2 1 1 2 2 4 4 4 5 4 4 3 2 2 2 2 3 3 3 4 4 4 5 5 6 6 6 7 7 7 8 8 8 8 8 7 8
8 6 7 8 7 7 7 8 10 9 8 8 8 8 7 7 8 8 7 7 6 5 5 6 6 7 8 7 8 9 8 6 5 4 3 3 2 1 0 1 1 3 4 4 4 4 3 2 2 1 1 1 1 2 2 3 4 4 5 4 4 4 3 3 3 2 3 2 3 3 3 4 4 5 5 6 6 7 7 7 7 7 7 7 7
7 7 9 10 8 8 8 9 10 9 8 7 7 8 8 8 9 9 8 7 6 5 6 7 6 6 7 7 7 8 8 7 6 5 4 4 3 2 1 1 1 2 4 5 6 6 5 4 2 2 2 1 1 0 1 1 2 3 4 5 5 5 5 5 4 3 3 3 3 2 2 2 3 3 4 5 5 6 6 6 7 7 7 7 6
8 10 11 11 10 9 9 9 9 10 9 7 6 8 8 8 9 9 8 8 6 6 7 7 6 6 6 7 7 6 6 6 6 6 6 5 4 3 3 2 2 3 3 4 5 6 6 5 5 5 4 4 4 3 2 1 0 1 2 3 5 6 6 6 6 5 5 4 3 3 3 2 2 2 2 3 4 5 5 5 6 6 6 6 6
8 11 13 12 11 10 9 10 10 11 10 8 9 9 9 8 8 8 8 7 6 6 7 8 7 6 6 6 6 5 5 6 7 7 7 5 4 3 3 2 2 4 4 4 4 5 5 5 5 6 7 7 6 6 5 4 4 3 3 3 2 3 5 5 6 6 6 6 5 5 4 3 3 3 2 2 2 3 4 4 5 5 5 5 6
8 11 13 12 11 10 9 11 11 10 9 9 10 10 9 9 8 7 7 6 6 6 6 6 8 7 6 6 5 5 5 5 6 6 5 5 4 4 2 2 1 1 2 3 4 4 4 4 4 4 6 6 6 7 6 5 6 6 7 7 6 3 1 2 4 5 6 7 7 7 6 5 5 4 4 3 2 2 3 3 3 4 4 5 5
7 10 11 11 11 11 11 11 10 9 7 7 7 8 8 8 8 7 7 6 6 7 6 6 7 7 7 7 6 6 5 6 7 5 4 4 4 4 3 2 2 1 2 1 1 3 3 3 3 3 2 3 4 5 5 5 6 7 8 8 9 8 5 4 4 4 5 6 7 8 7 7 6 6 5 4 4 3 3 3 3 3 3 4 5
7 9 10 11 11 11 10 10 9 8 6 5 6 6 7 8 8 8 7 7 6 7 7 7 9 9 8 8 7 6 5 5 6 5 4 4 3 3 4 4 5 4 4 2 1 1 2 2 2 2 1 1 1 2 3 3 3 4 5 6 7 7 6 5 5 5 5 3 4 6 7 7 7 6 6 5 5 5 4 4 3 3 3 3 4
5 7 9 10 10 10 9 9 9 8 6 4 4 5 6 7 8 8 7 6 6 7 7 8 10 11 11 11 10 9 7 6 6 5 5 5 3 4 5 6 7 5 3 1 2 3 2 2 1 1 0 0 0 0 0 1 2 3 4 5 5 5 4 5 5 6 7 5 3 3 4 5 6 6 6 5 6 6 6 5 4 4 3 3 3
3 4 7 10 10 9 9 8 8 7 7 5 4 5 5 6 7 8 7 6 6 6 6 8 10 10 11 12 11 11 10 9 9 8 7 7 5 6 7 6 6 6 5 4 3 3 3 4 3 2 3 2 1 1 1 2 2 3 3 4 6 7 5 2 3 5 6 6 6 4 3 2 3 4 4 5 6 6 6 6 6 5 4 4 3
2 3 5 8 9 8 9 9 8 6 6 6 6 6 6 6 7 7 8 7 7 7 7 8 9 9 9 11 11 11 10 9 10 10 9 8 7 7 7 6 8 8 9 8 7 6 5 5 4 2 5 5 4 4 3 3 4 4 4 4 5 7 7 5 3 3 4 5 6 5 3 1 1 2 3 5 6 6 7 7 7 6 5 5 4
1 2 3 5 7 8 9 9 8 7 6 6 7 7 7 7 7 8 9 9 8 8 9 9 9 9 8 8 8 8 8 8 8 7 5 5 4 3 3 4 6 8 9 10 10 10 9 8 7 5 6 8 7 7 7 6 6 5 5 6 6 7 8 7 7 7 7 6 6 5 4 2 2 2 3 5 6 7 7 7 7 7 6 6 5
0 0 2 4 6 7 7 8 9 9 8 8 7 7 6 6 7 8 9 10 9 9 10 10 8 8 7 7 6 6 6 6 5 4 3 3 3 3 2 2 3 5 6 6 7 8 8 8 8 7 8 9 10 10 10 9 9 8 8 8 8 9 9 8 8 8 8 8 9 8 6 4 4 4 4 4 5 6 7 8 8 8 7 7 7
1 2 2 3 3 4 5 6 7 8 9 8 7 7 6 6 6 7 9 9 9 9 10 10 9 8 8 7 6 6 6 5 4 4 4 3 3 2 2 2 1 3 3 2 2 3 3 4 5 6 6 7 8 9 10 10 10 10 10 10 10 11 10 10 10 9 9 9 10 11 10 8 7 6 5 5 5 6 7 8 8 8 8 8 8
1 1 1 2 2 1 2 4 5 6 6 6 6 6 7 7 7 8 9 9 9 9 10 10 8 7 8 8 8 7 6 6 5 4 4 4 4 3 2 2 1 1 2 1 1 0 1 1 2 3 4 4 5 6 7 7 9 10 11 12 12 13 12 12 11 11 11 11 10 12 12 12 12 10 8 8 7 7 7 8 8 8 8 8 8
1 0 1 1 1 1 1 2 3 4 5 5 6 7 7 7 8 9 10 9 9 9 10 12 9 7 7 7 7 8 7 8 7 5 4 4 5 4 4 4 3 3 3 2 1 1 1 1 2 3 4 4 5 6 6 7 8 8 8 9 11 12 13 13 13 12 12 12 12 13 13 14 14 14 13 12 10 10 9 8 8 8 8 9 8
2 0 2 2 3 4 4 3 3 3 4 5 5 6 6 7 7 8 8 9 10 8 9 12 11 9 8 5 6 7 7 11 10 7 6 6 6 5 5 5 4 4 4 4 4 3 3 3 3 4 4 4 5 5 5 7 7 6 6 8 8 8 9 11 13 13 13 14 14 14 15 15 14 14 14 14 13 13 11 9 9 9 9 9 9
3 1 0 1 1 2 3 4 4 5 5 5 4 5 5 5 6 6 8 10 10 8 9 10 10 10 10 8 7 6 6 11 9 7 8 7 7 6 5 5 6 6 5 5 4 3 3 3 4 4 4 4 4 4 4 6 6 4 5 7 7 6 6 7 9 10 11 13 14 15 16 16 15 14 14 14 14 14 12 12 11 10 10 10 10
3 2 2 2 1 1 0 1 3 5 5 5 5 5 4 5 6 7 8 10 9 9 9 9 9 9 10 11 10 7 7 10 8 9 10 8 7 7 6 6 6 7 6 5 3 3 3 3 4 4 4 5 5 5 5 7 7 6 6 6 6 6 6 6 7 7 8 9 12 14 17 18 17 16 16 15 15 14 13 13 13 12 12 12 11
3 2 2 2 2 2 2 1 2 3 4 5 5 5 5 6 7 8 9 9 9 8 8 8 8 8 9 10 10 9 8 9 8 8 10 10 8 7 7 5 5 6 6 5 4 4 5 6 7 6 6 7 7 7 7 7 7 7 7 7 8 8 8 8 8 7 7 6 8 10 13 15 17 17 16 15 15 15 15 15 15 15 14 14 13
3 3 3 3 3 3 3 2 2 3 4 4 4 4 5 6 7 7 8 9 9 8 8 8 7 8 9 9 7 7 7 9 8 7 8 10 10 9 7 6 6 7 7 7 7 6 7 9 9 9 8 8 8 8 7 7 8 8 8 9 9 9 9 9 9 8 7 6 5 5 6 9 12 13 13 14 14 15 17 17 16 16 17 16 15
3 4 4 4 4 4 4 3 3 4 4 4 4 4 4 4 5 6 7 8 10 10 9 9 9 10 10 7 7 7 7 8 9 8 8 8 9 10 9 7 8 8 8 8 8 8 8 9 9 8 8 8 7 7 8 8 8 9 9 9 10 10 10 10 10 10 9 6 5 5 4 4 5 5 7 10 12 13 14 15 16 17 16 16 17
4 5 5 4 4 5 6 4 4 5 4 4 4 4 4 4 4 5 6 7 9 11 11 11 10 10 9 7 7 8 7 8 9 9 9 8 10 11 9 8 8 8 8 9 9 8 8 8 8 7 7 7 7 8 8 9 10 10 10 10 10 11 11 11 11 11 10 7 5 5 5 5 5 5 5 6 7 8 10 11 15 16 16 16 18
5 5 6 5 4 6 8 6 5 5 4 4 3 4 5 5 5 5 5 6 7 9 10 11 10 10 10 9 9 8 7 7 8 9 8 8 9 10 9 9 9 8 9 9 9 8 8 8 7 7 7 6 6 7 8 9 10 10 10 10 11 11 11 11 11 11 10 9 7 6 5 5 6 6 7 7 7 6 5 7 10 11 12 14 16
6 5 6 6 5 7 9 8 6 6 5 4 4 5 6 5 6 6 5 6 6 7 8 10 10 9 9 8 8 7 6 7 7 7 7 8 9 9 8 8 8 8 8 7 7 7 7 7 6 5 5 5 5 7 8 9 9 10 10 11 11 11 11 11 11 10 10 9 9 8 7 6 5 6 7 7 7 7 7 7 7 7 7 9 11
7 7 7 7 7 9 10 9 8 7 6 6 6 8 8 6 6 6 6 7 7 8 9 9 10 10 9 8 8 8 7 7 7 7 7 7 8 8 8 8 7 7 7 6 6 5 6 6 5 4 4 5 5 6 7 8 9 9 10 11 11 12 12 11 11 10 10 10 10 9 8 7 6 7 8 8 8 9 9 9 9 9 9 9 10
9 9 9 9 9 10 11 10 9 8 8 8 8 9 9 7 5 6 7 8 9 9 10 10 10 11 10 9 9 8 8 8 8 7 6 6 7 8 8 9 8 7 7 6 5 5 4 4 4 4 5 6 6 6 7 7 8 9 10 10 11 12 12 12 12 11 11 11 10 10 9 8 8 8 8 9 10 10 11 11 12 12 11 12 13
12 12 10 10 11 11 11 11 11 10 10 11 10 10 10 8 7 9 10 11 11 11 11 11 11 11 11 11 11 11 11 10 9 9 9 7 8 8 8 8 8 8 8 7 5 4 4 3 3 4 5 6 6 6 7 8 8 9 9 10 11 11 11 12 12 12 11 11 11 11 11 10 10 10 10 11 11 11 11 12 12 13 13 13 14
13 13 11 11 11 11 11 11 11 10 10 11 11 12 12 11 10 11 12 12 12 13 13 13 14 14 14 14 14 13 14 13 12 12 12 10 8 8 7 6 6 6 7 7 6 4 3 3 2 4 5 5 6 7 7 8 8 9 9 10 10 10 11 11 11 12 12 12 12 12 12 12 12 13 13 13 13 13 12 12 12 13 13 13 14
11 11 11 10 10 9 9 9 9 9 9 10 10 12 12 11 11 12 12 13 13 14 15 16 17 17 17 17 16 16 16 16 16 16 15 12 9 7 6 5 4 4 6 7 6 5 3 3 3 3 4 6 7 8 8 8 8 9 8 9 10 10 10 11 11 12 12 12 13 13 13 13 13 14 14 15 15 15 15 14 14 14 14 14 14
10 10 10 10 9 9 8 8 8 8 8 9 10 11 11 10 10 11 12 13 13 15 16 17 18 19 19 19 17 16 17 16 16 17 15 13 10 8 8 7 6 5 5 6 6 6 4 3 4 5 6 7 8 9 9 9 9 9 9 10 10 11 10 10 11 11 12 12 12 13 13 13 14 14 14 15 15 16 16 16 16 16 16 16 16
10 10 9 9 9 8 8 8 8 8 8 9 10 10 11 11 11 12 13 14 14 14 15 16 17 16 15 16 15 15 15 13 13 13 12 11 10 9 8 7 8 7 5 5 7 7 5 4 5 6 7 8 9 8 9 10 11 10 11 11 11 12 12 12 13 13 13 13 13 13 14 14 14 14 14 15 15 15 16 17 17 18 18 18 18
10 10 9 9 9 8 8 8 8 8 9 10 10 11 12 13 13 14 15 14 13 13 14 13 13 13 11 11 11 12 11 10 9 9 8 9 9 7 7 6 6 6 5 5 6 6 4 5 5 5 8 8 7 8 9 10 12 12 11 12 13 13 12 12 14 15 15 15 16 15 15 15 15 15 15 15 16 16 16 16 17 18 18 19 19
11 11 10 9 10 9 9 9 9 9 10 11 11 12 12 13 13 14 14 12 10 11 12 10 10 10 9 8 8 8 9 8 8 7 6 6 6 5 5 5 4 5 5 5 4 4 3 5 5 5 9 8 3 7 11 10 11 11 9 11 13 12 12 11 12 15 16 16 17 17 17 17 17 17 17 17 17 18 18 18 18 18 18 18 19
13 11 10 10 10 10 10 10 10 10 10 11 11 11 11 11 11 12 12 11 10 10 9 8 7 8 8 7 6 6 7 7 8 7 6 6 5 4 4 4 4 5 5 5 4 3 3 3 5 3 7 9 4 7 12 12 13 12 9 10 12 12 14 14 12 15 16 16 16 17 18 18 19 19 19 19 19 19 20 20 20 20 19 19 19
13 12 11 11 11 10 10 10 10 11 11 11 11 10 10 10 10 9 9 10 10 9 8 7 7 7 6 5 5 6 6 6 7 6 6 7 5 4 4 4 4 4 4 5 4 3 2 1 2 0 5 8 6 7 10 10 13 14 12 12 13 13 16 16 16 17 18 17 17 17 17 17 18 19 19 20 20 21 21 21 21 21 22 21 21
13 13 12 12 12 11 11 11 11 11 10 10 10 9 9 9 9 9 9 9 9 9 9 9 9 9 7 6 5 6 6 5 5 5 5 6 5 4 4 3 2 2 1 2 2 1 1 1 2 4 5 4 5 9 10 8 9 10 9 11 13 15 18 20 20 21 22 21 21 21 20 20 20 20 21 21 22 23 23 23 23 23 23 23 23
13 13 13 13 13 12 12 12 12 11 11 10 10 9 9 9 9 9 9 9 9 9 9 9 9 9 9 8 8 8 8 7 6 6 7 7 6 5 4 3 3 2 2 2 1 1 1 2 3 5 6 6 6 8 10 12 12 10 9 11 12 12 16 20 22 24 25 25 24 24 24 23 23 23 23 24 23 24 24 25 25 25 25 25 24
13 14 14 13 13 13 13 13 13 12 12 11 10 10 9 9 9 9 9 9 9 9 8 8 7 7 7 8 9 9 9 9 8 8 9 9 8 6 5 5 4 4 3 2 2 2 2 2 3 4 5 7 9 7 8 12 12 9 11 15 15 13 14 19 21 21 25 26 26 26 27 27 27 26 26 27 26 25 25 25 26 26 26 26 26
13 14 14 14 14 15 15 15 14 14 13 12 12 11 10 10 10 10 9 8 8 8 8 7 8 7 7 8 9 9 10 11 10 9 9 8 7 7 7 6 6 6 5 4 4 4 4 4 5 5 5 7 9 9 9 10 9 8 13 19 19 17 17 20 20 18 23 28 26 26 28 29 29 29 29 30 30 28 27 27 27 27 26 26 27
15 14 14 15 16 17 17 17 16 16 15 14 15 14 14 14 13 12 11 10 9 9 8 8 10 11 11 11 11 11 12 12 12 11 11 10 8 8 10 10 8 8 6 5 5 6 6 7 8 7 9 10 11 11 10 9 11 15 19 19 19 18 19 21 19 16 21 29 28 26 28 29 30 31 29 29 30 31 29 28 29 29 27 27 27
17 16 15 16 18 19 19 20 20 19 18 18 18 18 18 18 17 15 12 11 11 12 12 13 14 14 13 14 14 14 14 14 14 14 14 14 13 13 14 14 11 9 8 6 6 7 7 8 9 8 9 10 11 11 11 10 14 19 19 17 17 18 19 20 19 16 18 27 31 29 29 30 30 30 29 28 29 31 30 28 29 29 29 29 28
17 17 17 18 20 20 20 22 23 24 23 22 20 20 21 21 21 18 14 11 11 12 14 15 15 15 15 14 14 15 16 17 16 16 16 17 18 17 17 16 14 12 9 7 7 8 8 9 8 8 8 9 11 12 11 11 14 18 19 19 18 17 16 19 21 18 18 26 33 33 30 29 29 30 29 29 29 30 30 29 28 28 28 29 29
17 17 19 20 21 21 21 23 24 25 27 26 24 22 23 24 24 22 18 15 13 13 14 15 16 16 14 11 10 13 16 16 16 17 17 17 18 18 17 17 15 13 11 11 10 9 10 10 9 9 9 9 11 12 14 17 20 22 21 19 16 16 18 21 22 21 22 29 34 33 31 30 28 27 28 28 30 31 32 31 30 29 28 28 29
16 17 18 19 20 21 21 22 23 24 26 29 30 28 25 24 25 24 21 19 17 16 16 17 18 16 11 8 9 11 14 14 14 16 17 16 16 16 18 18 16 13 14 15 14 13 13 11 9 8 9 11 13 15 19 23 22 21 21 19 18 20 23 24 25 27 29 31 32 32 32 29 25 21 23 27 29 30 32 33 33 32 30 29 29
16 16 17 18 19 21 22 22 22 23 25 27 30 30 28 26 26 24 22 21 20 18 16 17 16 14 12 11 10 9 11 13 13 14 15 14 13 14 16 17 15 14 15 15 15 15 15 13 12 11 13 16 18 20 23 23 20 21 22 22 23 25 27 28 30 30 29 27 26 28 29 28 24 21 22 25 26 27 30 32 33 34 33 31 29
14 16 17 17 18 19 20 20 19 21 22 23 25 28 28 27 28 27 25 22 19 16 16 16 14 13 12 12 10 10 11 12 11 12 13 12 12 12 14 15 14 15 15 15 14 15 15 15 15 15 17 21 22 22 22 21 22 23 24 25 27 29 29 28 26 24 22 19 18 21 24 25 25 24 22 22 24 25 27 30 32 33 33 31 29
15 18 19 19 19 18 17 17 17 18 20 20 21 23 24 25 26 25 22 19 16 15 15 14 13 12 11 10 10 11 11 10 9 10 11 10 10 10 11 12 13 13 14 14 15 16 17 17 17 18 21 22 22 21 21 22 23 24 25 27 27 24 22 21 20 19 17 14 14 17 21 23 23 23 22 21 23 26 28 28 28 28 29 30 28
14 16 17 19 20 19 18 17 16 17 18 17 18 19 20 22 22 20 16 15 16 15 14 13 13 12 11 10 9 9 8 8 8 8 8 8 8 8 9 10 12 13 14 15 16 18 18 19 20 21 22 22 21 21 22 23 23 24 26 26 24 19 18 19 20 18 17 16 17 17 19 20 20 21 22 22 22 25 26 23 19 22 26 26 24
10 11 13 15 18 19 19 18 17 17 17 17 18 19 19 19 17 15 13 13 14 15 14 13 12 11 10 9 9 8 8 8 8 7 7 7 7 8 10 11 12 14 16 17 18 19 20 21 22 22 21 21 22 22 23 24 24 25 25 25 23 21 19 19 19 19 18 18 16 14 16 18 19 18 20 22 22 20 19 17 16 18 21 21 20
10 10 10 11 14 16 17 18 17 16 16 16 17 18 18 17 15 13 12 12 14 13 13 12 11 11 10 9 9 9 8 8 8 7 8 8 9 10 10 9 9 11 15 17 17 19 20 20 21 21 21 22 23 24 25 26 25 24 24 24 23 21 19 18 18 19 19 16 12 13 16 18 18 18 19 21 23 19 16 16 16 17 17 18 19
Wind_Direction
203 179 200 211 212 207 202 208 202 206 210 198 197 191 184 184 175 167 163 156 150 144 154 167 174 171 164 169 172 167 169 171 176 181 184 216 236 233 318 2 23 36 58 110 135 148 173 198 195 180 132 147 146 150 164 173 185 196 205 215 222 243 270 293 306 330 344 358 7 12 22 25 34 44 46 45 44 46 48 52 56 61 66 70 71
209 192 221 229 225 218 210 214 211 210 208 198 195 185 177 177 166 163 164 155 151 146 155 165 170 173 163 162 170 164 164 172 177 178 187 208 215 206 195 25 13 46 61 81 93 96 130 168 188 170 106 153 188 187 172 165 181 198 210 217 224 238 247 258 272 290 305 320 335 346 360 10 18 27 37 39 40 42 42 43 45 47 50 54 58
227 230 242 241 232 229 231 230 223 220 213 201 196 185 176 172 165 165 162 155 153 141 148 163 169 173 166 170 177 170 172 182 185 185 186 195 202 204 180 105 48 54 64 75 84 82 88 103 120 124 86 81 145 224 226 183 198 212 218 223 227 238 246 250 256 259 266 276 285 298 315 334 355 8 19 25 30 35 36 37 39 41 40 39 42
246 253 254 250 242 239 243 240 234 229 222 209 201 194 180 167 166 167 161 157 154 146 151 160 168 172 173 182 184 178 187 196 198 198 195 196 198 203 208 162 96 79 72 74 83 81 81 84 81 79 70 65 69 56 45 62 61 232 249 252 241 238 244 249 252 255 254 253 257 261 272 287 301 325 349 3 14 20 25 28 30 35 34 30 31
252 251 249 248 246 245 244 242 237 228 218 207 201 195 180 163 163 165 162 162 158 156 156 158 166 171 177 185 186 186 192 205 208 200 193 195 197 195 216 208 141 108 100 94 93 89 84 88 84 77 72 67 62 54 51 56 58 54 40 18 314 251 250 262 265 263 259 255 252 249 252 259 268 278 291 316 346 356 5 13 18 23 24 24 22
252 247 246 246 246 244 244 244 241 233 220 208 198 189 176 158 154 164 167 163 162 163 159 164 171 174 183 182 190 197 189 203 211 200 196 204 200 174 174 226 213 104 110 107 105 105 95 92 91 85 81 73 65 57 55 61 63 59 53 45 39 31 342 317 302 286 271 261 256 254 251 251 255 262 268 274 290 314 333 348 3 10 12 14 12
247 244 242 241 240 240 242 240 239 238 228 214 199 180 167 151 147 163 172 169 172 169 163 181 188 189 198 190 194 205 195 211 215 203 215 220 197 168 159 221 246 251 238 207 117 117 104 94 96 97 98 88 75 63 59 69 69 62 56 52 48 42 36 26 1 330 297 268 259 258 255 254 255 257 263 268 272 278 289 306 329 344 353 1 1
243 243 242 236 234 236 238 238 237 236 232 222 205 177 157 156 158 164 176 184 190 189 183 199 209 210 215 211 212 216 203 216 217 200 215 211 176 165 180 204 212 222 235 244 255 173 131 120 113 103 111 121 102 69 53 54 50 37 31 33 39 39 38 31 21 14 1 317 274 268 265 262 262 264 266 266 269 270 270 275 285 302 321 339 347
254 249 240 231 228 228 229 234 238 236 233 226 209 185 166 167 171 172 181 189 197 201 198 211 221 222 222 220 220 220 210 216 220 210 219 219 194 193 207 217 223 230 235 247 281 273 251 227 206 192 164 85 307 217 51 349 334 331 330 328 333 350 18 37 36 36 36 33 15 324 298 281 272 274 276 272 269 266 265 264 263 267 280 300 321
249 241 230 228 225 223 222 221 230 236 235 232 220 206 188 175 182 189 189 190 195 193 191 207 218 218 220 220 220 223 223 228 232 231 236 243 244 239 239 244 238 238 240 235 252 273 277 262 254 279 280 267 266 247 226 233 250 262 276 283 288 296 308 349 40 43 40 42 39 23 359 342 313 294 289 283 275 268 264 260 257 256 259 268 284
233 235 224 227 224 222 226 221 224 232 234 238 235 225 212 196 194 201 202 198 195 192 196 203 204 202 206 211 214 218 220 224 232 237 244 248 249 246 245 247 243 246 250 245 245 252 259 257 256 288 281 266 258 258 253 249 251 247 248 256 264 277 284 282 284 317 352 12 20 15 8 3 339 302 289 284 277 271 265 259 255 251 249 253 259
280 262 231 235 233 228 229 229 231 236 235 236 240 237 223 209 204 208 211 207 203 203 206 206 205 203 199 198 199 202 203 204 215 228 237 233 225 230 226 231 240 244 247 247 249 255 257 255 253 256 264 268 267 262 258 260 265 262 260 265 267 269 271 270 267 268 279 299 314 323 332 311 265 246 256 267 271 267 262 259 256 252 247 247 248
27 210 211 226 240 240 237 237 238 241 242 237 241 245 232 219 215 211 209 206 207 211 211 206 201 194 185 185 184 185 187 183 189 193 176 180 195 212 203 194 224 231 237 246 252 256 259 258 258 260 264 271 274 272 270 270 270 268 268 272 276 276 275 273 267 262 265 268 268 274 285 297 290 271 260 261 264 263 258 255 253 250 246 242 243
75 98 127 169 205 235 243 245 242 243 248 245 244 244 237 233 222 214 216 214 215 219 212 200 195 186 172 170 175 178 178 168 172 180 171 164 163 182 193 164 188 219 221 235 259 266 266 262 264 273 278 281 283 282 283 281 278 278 276 276 278 278 278 277 269 261 263 264 265 269 268 270 277 282 284 278 269 264 257 253 251 248 245 239 238
88 116 117 125 132 168 226 237 238 238 241 241 244 240 236 236 222 217 228 231 227 225 210 194 192 189 179 183 185 177 172 173 175 174 170 156 135 126 126 117 117 180 178 159 138 76 311 290 285 295 307 316 318 312 306 298 290 289 285 282 282 278 276 278 277 267 262 263 268 274 273 269 269 270 277 284 284 277 263 250 244 241 241 239 237
94 223 218 203 171 186 230 241 235 234 233 237 243 242 238 235 228 223 229 235 234 227 209 197 196 192 194 203 191 185 186 176 162 145 137 125 118 123 123 115 102 90 84 77 72 62 347 332 319 322 335 344 351 354 341 324 314 310 306 299 292 285 280 282 285 278 270 269 269 274 277 276 274 271 272 277 282 285 274 252 239 234 234 237 239
114 162 239 230 223 220 224 235 240 237 237 243 245 244 242 231 225 222 221 226 231 229 210 202 203 199 203 207 190 200 192 165 148 130 128 119 110 115 115 111 104 95 84 72 64 49 22 4 352 345 348 351 1 9 347 333 331 327 332 333 322 305 290 285 286 283 277 273 272 273 276 277 279 277 276 275 275 280 277 261 245 237 234 234 238
120 133 305 6 248 230 220 220 233 239 235 236 234 242 248 225 209 207 214 225 229 227 212 203 207 206 208 210 203 205 174 164 160 138 132 119 105 105 101 99 97 93 88 84 81 66 40 17 5 1 4 12 19 15 354 356 359 349 349 354 354 345 322 306 300 295 286 278 274 274 273 274 277 280 281 279 275 275 273 264 251 240 237 237 237
112 108 75 71 71 40 141 200 222 234 233 230 232 241 236 207 194 192 209 224 218 213 213 208 209 211 214 217 215 210 179 175 178 154 142 128 115 113 111 110 106 100 92 85 77 61 54 41 32 28 32 40 40 30 18 21 27 27 22 15 11 8 359 354 349 336 317 295 282 276 271 270 273 278 282 281 275 269 262 257 251 245 243 244 243
124 120 111 130 141 114 108 148 193 206 214 215 220 225 218 210 206 196 202 213 206 207 216 210 208 208 208 211 216 220 203 184 180 169 155 146 137 124 115 117 115 110 97 83 67 60 72 71 61 56 55 54 48 41 34 31 31 31 34 32 27 23 19 16 16 12 356 326 296 282 274 267 267 274 277 275 271 264 255 247 246 248 248 249 251
135 143 144 144 142 128 128 145 165 181 190 190 194 201 201 206 208 200 198 196 192 203 210 199 198 199 193 193 198 204 198 182 177 177 163 151 143 133 127 122 110 101 87 78 73 71 78 80 74 67 61 56 47 42 36 31 29 28 31 31 26 22 18 15 14 14 8 352 318 292 284 267 261 265 267 266 266 264 258 251 247 247 249 254 259
129 139 143 137 141 137 132 142 160 176 177 169 180 185 177 183 189 190 190 184 183 188 190 188 194 193 182 181 185 177 174 177 177 177 172 158 146 142 142 133 116 102 90 83 80 77 74 74 75 71 65 57 44 34 30 29 27 25 26 24 21 19 17 13 11 8 5 357 331 315 318 301 278 271 270 271 270 267 265 260 252 248 250 256 260
132 134 141 143 149 146 138 142 154 164 169 169 180 178 175 189 187 181 182 184 184 180 178 181 185 184 174 172 180 174 174 180 180 182 180 166 152 146 145 137 122 112 108 101 92 85 76 69 65 60 57 50 33 19 14 16 17 17 17 16 14 15 15 14 13 11 9 4 341 333 346 351 351 346 330 322 304 282 268 256 248 247 249 254 258
132 137 149 150 147 146 143 143 148 155 164 168 170 167 170 178 177 175 173 176 181 178 179 179 173 174 175 173 176 177 179 181 180 184 180 168 159 152 146 139 127 121 120 110 98 89 79 71 62 54 48 38 21 8 2 360 1 1 1 1 2 3 3 4 6 7 7 0 345 333 338 354 2 358 351 354 354 340 310 272 260 256 253 257 263
136 140 146 144 139 144 145 145 150 158 164 163 162 160 153 150 156 155 149 153 157 161 170 170 163 165 165 159 158 158 155 155 158 163 161 157 158 155 150 144 137 135 132 121 108 94 81 73 65 57 48 29 4 353 349 347 348 350 349 349 349 348 348 349 351 353 353 351 347 342 339 339 343 341 338 339 342 345 340 326 316 305 285 275 279
148 147 141 138 141 148 148 151 158 162 161 155 154 154 141 128 139 138 132 138 139 143 151 151 151 153 147 142 146 149 148 146 141 137 145 153 160 161 154 148 146 145 144 141 128 105 87 73 59 43 16 358 349 344 343 342 343 345 343 342 342 340 339 339 339 339 337 337 338 342 342 334 327 321 319 319 317 318 319 315 313 312 305 297 296
153 150 136 130 135 141 144 147 149 144 141 136 132 143 139 124 129 136 133 133 132 136 139 140 145 148 147 145 146 148 148 145 136 133 143 154 161 166 162 155 152 150 147 141 130 113 99 76 49 28 357 347 349 345 344 345 347 346 342 341 341 338 337 335 334 332 330 330 328 329 328 320 314 309 304 302 301 301 301 299 297 296 294 293 294
154 148 134 130 131 134 136 136 136 131 130 128 124 134 139 132 136 140 136 132 131 134 135 138 142 142 143 140 138 142 142 138 137 142 146 147 151 159 161 160 156 152 152 144 128 116 108 86 33 13 1 355 354 353 355 354 353 351 347 344 341 339 338 335 334 332 330 329 327 324 322 317 313 309 303 299 297 294 292 290 289 287 286 285 285
154 150 141 138 135 136 136 135 134 131 131 129 128 134 137 138 144 145 142 139 137 138 138 140 140 137 137 136 133 134 131 128 129 133 135 134 140 150 157 166 162 155 158 148 128 117 114 107 67 15 11 19 16 14 15 8 3 360 353 348 346 343 341 337 334 334 332 329 327 324 321 318 315 312 309 306 303 300 296 292 290 287 287 285 283
153 154 151 148 145 143 141 140 138 136 137 135 135 136 136 139 145 145 144 142 140 140 140 140 138 136 136 134 130 128 125 122 120 119 119 118 120 129 136 145 147 146 153 145 130 123 111 108 109 67 34 41 43 37 31 22 16 13 3 354 353 351 346 343 341 338 336 332 328 325 322 318 316 313 311 309 306 304 302 299 296 294 291 287 285
149 155 155 153 153 152 149 149 145 141 142 140 138 136 132 133 136 139 139 136 136 138 138 137 136 136 136 133 130 128 124 119 117 116 114 111 109 109 110 115 119 118 130 141 137 129 124 116 100 80 63 55 49 41 33 28 23 17 12 6 359 355 351 351 351 346 342 339 334 330 327 323 320 316 312 310 308 306 305 303 300 298 295 292 288
144 150 152 154 155 154 153 154 148 142 140 138 136 133 130 128 128 132 131 127 127 129 130 132 132 132 132 130 129 127 121 117 117 117 116 117 115 109 104 106 110 108 106 123 129 124 120 108 80 61 50 48 44 35 24 17 14 12 11 7 360 358 354 349 349 348 344 341 339 335 332 329 327 324 321 317 314 311 308 306 304 302 299 297 294
144 146 148 149 150 149 148 148 146 143 140 138 137 134 133 132 131 131 127 121 122 123 123 126 127 128 128 127 128 126 123 121 118 113 115 119 115 110 106 98 101 106 100 109 124 121 91 63 66 47 30 35 33 18 13 7 2 2 1 357 357 359 357 345 340 342 342 338 336 334 331 330 328 326 324 322 319 317 313 311 309 306 304 301 298
151 151 152 150 149 149 147 148 147 146 145 145 144 141 141 140 137 134 129 126 128 127 123 123 125 129 131 132 135 135 134 132 126 126 129 121 114 113 112 105 106 110 106 110 123 124 83 38 39 29 19 29 21 352 360 1 360 3 355 347 350 349 346 343 333 333 336 334 332 331 329 327 326 324 323 321 319 317 315 314 312 309 307 304 301
160 160 161 159 156 155 153 153 154 155 156 156 153 150 149 148 146 144 140 139 140 134 127 126 129 132 133 136 144 146 147 143 141 151 151 136 134 133 124 124 126 119 115 117 113 121 120 45 39 26 355 4 4 342 349 348 347 354 347 337 342 338 336 340 333 326 330 330 328 327 326 325 324 323 321 320 318 317 315 314 312 310 308 306 304
172 170 173 171 166 165 164 164 166 168 168 166 163 161 160 158 156 156 154 154 154 150 145 148 153 150 144 147 151 149 150 150 149 157 156 147 147 139 127 125 128 128 119 116 112 114 139 86 52 288 320 344 343 330 342 344 339 343 343 335 333 327 324 329 328 323 322 321 319 317 318 318 317 317 317 317 317 316 315 313 311 309 308 306 305
186 178 180 180 176 176 176 178 181 181 180 179 177 174 173 170 168 168 169 170 171 169 170 172 173 170 165 169 182 177 167 159 156 162 165 160 158 155 143 134 140 152 92 91 112 104 142 195 283 298 307 326 318 316 327 332 329 329 329 328 327 322 320 323 324 320 316 316 315 312 311 312 312 313 314 314 314 314 314 313 312 310 308 306 305
203 191 186 185 185 185 184 187 191 192 192 191 189 188 187 185 183 183 184 184 185 186 189 189 188 189 188 189 198 200 191 186 187 188 186 178 175 181 177 169 192 253 318 338 317 315 288 234 274 299 302 302 307 312 315 321 329 326 318 323 325 320 317 319 323 320 315 316 317 314 313 312 311 310 309 308 309 309 309 308 307 307 307 306 305
216 208 199 193 191 190 193 199 201 201 201 200 199 197 194 193 196 197 198 199 199 197 199 205 208 211 216 216 218 221 218 217 219 213 203 191 182 193 208 206 222 258 284 290 290 296 289 274 278 286 292 300 308 311 309 320 333 332 317 320 322 317 312 316 322 320 313 315 318 317 314 311 309 309 308 306 304 304 305 304 302 301 302 302 302
222 220 218 215 208 203 205 209 211 210 208 207 208 207 203 204 205 207 210 212 214 216 217 226 233 235 243 247 247 249 249 246 245 240 232 217 198 208 233 237 243 258 261 256 271 282 285 287 290 290 294 304 308 309 312 321 328 322 315 317 319 317 314 315 320 317 309 311 316 316 316 315 312 312 312 311 307 305 306 305 301 298 297 297 297
230 234 234 232 229 225 223 222 222 220 218 217 219 218 217 216 214 215 220 223 227 233 237 244 251 250 250 252 254 256 260 258 246 236 239 238 220 219 235 240 247 259 259 252 262 275 283 288 288 285 291 299 300 300 307 314 315 317 319 320 319 317 315 315 317 314 306 308 312 314 316 316 312 311 312 312 309 307 308 307 304 302 300 298 296
234 237 234 231 232 233 233 233 232 230 230 230 231 230 229 227 223 220 223 231 237 244 250 251 252 252 249 249 253 256 258 258 246 233 236 242 237 234 239 244 248 251 248 249 257 265 276 285 285 283 290 296 295 298 306 312 315 319 321 320 317 316 317 316 316 315 307 307 312 314 313 313 312 311 311 309 306 306 306 306 304 304 302 300 297
231 233 232 231 233 234 234 237 238 236 235 236 239 242 239 233 229 224 225 238 249 253 254 253 250 248 247 248 253 257 254 251 248 243 244 248 247 245 247 252 255 252 250 255 259 267 281 285 281 284 290 292 295 300 303 308 313 314 313 314 315 314 314 312 312 312 306 305 310 313 313 313 313 311 310 308 306 305 304 302 300 300 299 297 296
233 235 234 233 235 237 238 241 243 242 239 239 241 243 242 238 234 230 234 246 258 260 257 254 251 249 248 242 243 255 256 250 250 253 254 255 252 250 250 252 253 254 257 258 254 264 282 284 281 286 286 288 299 300 295 301 308 307 307 311 310 305 307 308 307 306 304 305 309 311 311 312 313 310 308 307 307 307 306 304 301 299 298 297 295
235 236 236 235 235 238 240 242 243 242 242 242 241 240 241 242 238 236 243 251 258 262 260 254 250 247 245 238 237 256 264 258 257 261 263 263 258 251 247 245 242 243 250 254 254 260 273 278 279 280 274 282 298 297 293 300 306 304 305 307 304 303 305 304 302 301 303 306 309 309 310 313 314 307 303 305 307 306 306 306 305 303 302 300 297
238 237 238 237 237 238 240 241 242 241 242 243 242 239 239 243 244 244 248 249 252 258 254 248 247 241 236 237 235 245 259 259 259 264 268 270 264 251 243 239 238 240 245 252 259 265 274 278 276 273 277 289 300 300 298 303 305 303 305 305 303 304 304 302 303 305 308 310 310 308 308 312 312 304 300 304 304 303 304 306 307 307 305 302 299
239 240 239 239 239 239 239 240 238 239 242 242 239 238 238 243 245 243 244 245 246 248 245 242 244 239 234 233 226 230 247 253 251 253 258 265 262 247 237 235 237 243 248 255 265 273 280 282 279 281 289 297 303 302 302 305 306 307 308 306 306 308 308 308 309 309 310 308 300 297 300 305 309 305 301 302 301 300 301 304 306 307 305 304 302
243 245 244 242 240 236 234 234 231 234 239 237 233 234 236 237 236 235 240 243 233 229 234 237 237 233 229 226 221 225 237 241 240 243 245 247 243 230 225 230 237 243 251 262 272 279 282 284 285 290 296 301 303 302 302 304 306 306 307 307 310 311 307 303 301 300 300 294 286 288 291 296 304 305 301 299 299 299 301 304 307 306 303 304 305
246 248 246 241 237 234 231 229 226 227 229 224 220 222 223 222 224 226 232 228 214 215 226 228 226 226 222 219 221 226 232 233 232 233 232 229 223 214 215 226 237 247 257 266 275 280 283 286 289 293 297 299 300 299 301 302 303 304 305 306 308 305 296 293 294 294 293 292 291 288 285 290 300 303 300 299 298 301 305 307 305 300 300 307 311
245 248 246 237 232 231 229 226 222 222 222 218 215 214 210 206 206 205 204 203 204 211 217 217 217 219 215 214 218 220 220 220 217 219 218 208 202 210 221 232 243 255 263 268 275 280 284 288 291 293 295 296 298 300 301 301 302 303 303 304 304 302 296 292 292 292 293 294 294 287 284 292 300 300 300 301 300 300 301 300 296 295 301 310 312
243 247 245 234 226 224 223 221 219 216 212 208 202 194 190 190 191 186 183 192 200 203 203 204 206 206 205 206 207 205 205 208 210 215 211 195 194 213 229 238 245 255 264 273 283 288 291 294 295 296 298 299 301 302 302 301 302 301 301 304 305 303 296 288 288 291 292 292 291 288 290 296 299 300 302 303 302 299 296 295 296 297 299 301 300